[TLELIST] Archives

 

Current TLEs

September 29th 2007 PDT

HST 1 20580U 90037B 07272.18469899 .00000342 00000-0 13642-4 0 9715 2 20580 028.4683 231.9465 0003884 126.2014 233.8932 15.00283202755591 ISS (ZARYA) 1 25544U 98067A 07272.36640690 .00011579 00000-0 79308-4 0 694 2 25544 051.6346 286.4116 0002466 054.5116 074.3051 15.75290505507219 CXO 1 25867U 99040B 07270.79166667 .00000389 00000-0 10000-3 0 1170 2 25867 062.4246 087.0216 6382762 282.4858 359.0493 00.37808693 2637 ____________________________________________________________________ These 2-Line ...Continue Reading

Current TLEs

September 28th 2007 PDT

HST 1 20580U 90037B 07269.39072073 +.00000375 +00000-0 +16238-4 0 09741 2 20580 028.4683 250.1659 0003818 098.1454 261.9570 15.00282352755170 ISS (ZARYA) 1 25544U 98067A 07271.48197223 .00009643 00000-0 66847-4 0 643 2 25544 051.6341 290.9632 0002618 051.3387 098.4364 15.75261474507072 CXO 1 25867U 99040B 07270.79166667 .00000389 00000-0 10000-3 0 1170 2 25867 062.4246 087.0216 6382762 282.4858 359.0493 00.37808693 2637 ____________________________________________________________________ These 2-Line ...Continue Reading

Current TLEs

September 27th 2007 PDT

HST 1 20580U 90037B 07270.32204722 .00000367 00000-0 15629-4 0 9704 2 20580 028.4683 244.0934 0003829 107.6326 252.4682 15.00282674755316 ISS (ZARYA) 1 25544U 98067A 07270.33343816 .00007420 00000-0 52476-4 0 584 2 25544 051.6346 296.8737 0002707 044.2170 067.9306 15.75232959506890 CXO 1 25867U 99040B 07270.79166667 .00000389 00000-0 10000-3 0 1170 2 25867 062.4246 087.0216 6382762 282.4858 359.0493 00.37808693 2637 ____________________________________________________________________ These 2-Line ...Continue Reading

Current TLEs

September 26th 2007 PDT

HST 1 20580U 90037B 07269.19115081 .00000355 00000-0 14700-4 0 9690 2 20580 028.4683 251.4684 0003751 096.1087 263.9925 15.00282115755148 ISS (ZARYA) 1 25544U 98067A 07269.45027443 .00008806 00000-0 61519-4 0 510 2 25544 051.6344 301.4197 0002598 041.8155 098.6926 15.75220283506756 CXO 1 25867U 99040B 07268.12500000 .00000415 00000-0 10000-3 0 1166 2 25867 062.4015 087.1030 6378991 282.4763 356.1198 00.37808161 2629 ____________________________________________________________________ These 2-Line ...Continue Reading

Current TLEs

September 25th 2007 PDT

HST 1 20580U 90037B 07266.39716855 +.00000323 +00000-0 +12216-4 0 09724 2 20580 028.4689 269.6883 0003576 067.2034 292.8934 15.00280906754722 ISS (ZARYA) 1 25544U 98067A 07267.73081140 .00011119 00000-0 70702-4 0 394 2 25544 051.6354 310.2630 0010249 044.8299 057.9227 15.77017172506486 CXO 1 25867U 99040B 07268.12500000 .00000415 00000-0 10000-3 0 1166 2 25867 062.4015 087.1030 6378991 282.4763 356.1198 00.37808161 2629 ____________________________________________________________________ These 2-Line ...Continue Reading

Current TLEs

September 24th 2007 PDT

HST 1 20580U 90037B 07265.39931645 +.00000303 +00000-0 +10658-4 0 09758 2 20580 028.4689 276.1939 0003507 056.6342 303.4582 15.00280487754570 ISS (ZARYA) 1 25544U 98067A 07267.48389791 .00010771 00000-0 68634-4 0 371 2 25544 051.6348 311.5365 0010386 042.4188 097.5893 15.77009913506440 CXO 1 25867U 99040B 07268.12500000 .00000415 00000-0 10000-3 0 1166 2 25867 062.4015 087.1030 6378991 282.4763 356.1198 00.37808161 2629 ____________________________________________________________________ These 2-Line ...Continue Reading

Current TLEs

September 23rd 2007 PDT

HST 1 20580U 90037B 07266.19759814 .00000304 00000-0 10757-4 0 9675 2 20580 028.4689 270.9902 0003514 064.9926 295.1023 15.00280710754699 ISS (ZARYA) 1 25544U 98067A 07266.53361620 .00010168 00000-0 65102-4 0 307 2 25544 051.6357 316.4384 0010184 040.3940 101.0269 15.76985947506294 CXO 1 25867U 99040B 07265.50000000 .00000365 00000-0 10000-3 0 1153 2 25867 062.3849 087.1626 6373804 282.4875 358.8123 00.37805059 2615 ____________________________________________________________________ These 2-Line ...Continue Reading

Current TLEs

September 22nd 2007 PDT

HST 1 20580U 90037B 07264.46798749 .00000307 00000-0 10964-4 0 9665 2 20580 028.4690 282.2662 0003477 046.3991 313.6887 15.00280262754432 ISS (ZARYA) 1 25544U 98067A 07265.51939914 .00008982 00000-0 58060-4 0 240 2 25544 051.6358 321.6678 0009964 036.8559 102.8414 15.76959469506133 CXO 1 25867U 99040B 07265.50000000 .00000365 00000-0 10000-3 0 1153 2 25867 062.3849 087.1626 6373804 282.4875 358.8123 00.37805059 2615 ____________________________________________________________________ These 2-Line ...Continue Reading

Current TLEs

September 21st 2007 PDT

HST 1 20580U 90037B 07262.53880507 +.00000313 +00000-0 +11458-4 0 09751 2 20580 028.4693 294.8455 0003389 024.9382 335.1373 15.00279806754141 ISS (ZARYA) 1 25544U 98067A 07264.36861946 .00008726 00000-0 56580-4 0 174 2 25544 051.6356 327.6049 0010039 032.0755 050.2019 15.76935687505952 CXO 1 25867U 99040B 07262.87500000 .00000308 00000-0 10000-3 0 1141 2 25867 062.3725 087.2173 6368576 282.5206 001.4538 00.37804503 2608 ____________________________________________________________________ These 2-Line ...Continue Reading

Current TLEs

September 20th 2007 PDT

HST 1 20580U 90037B 07263.40361121 .00000301 00000-0 10451-4 0 9652 2 20580 028.4691 289.2068 0003418 034.2887 325.7924 15.00279929754271 ISS (ZARYA) 1 25544U 98067A 07263.46697061 .00009231 00000-0 55533-4 0 123 2 25544 051.6347 332.2622 0010041 029.8252 330.3849 15.76918227505819 CXO 1 25867U 99040B 07262.87500000 .00000308 00000-0 10000-3 0 1141 2 25867 062.3725 087.2173 6368576 282.5206 001.4538 00.37804503 2608 ____________________________________________________________________ These 2-Line ...Continue Reading
  • This mailing list is a public mailing list - anyone may join or leave, at any time.
  • This mailing list is announce-only.

International Space Station (ISS) / Hubble Space Telescope (HST) / Chandra X-Ray Observatory Orbital Data via EMAIL

Privacy Policy:

Private list